This is the latest recevied weather packets stored in our database for station/object K3FAZ. If no packets are shown the sender has not sent any weather packets the latest 1 day(s).
| Time | Temp. | Humidity | Pressure | Rain* | Wind** | Luminosity | Snow |
|---|---|---|---|---|---|---|---|
| 1777973179 | 16.11° C | 72% | 1009.8 hPa | 0 mm | 2.68 m/s, 173° | 0 W/m² | - |
| 1777972878 | 16.11° C | 72% | 1010.1 hPa | 0 mm | 1.34 m/s, 201° | 0 W/m² | - |
| 1777972573 | 15.56° C | 72% | 1010 hPa | 0 mm | 2.68 m/s, 168° | 0 W/m² | - |
| 1777972272 | 15.56° C | 73% | 1010 hPa | 0 mm | 1.79 m/s, 190° | 0 W/m² | - |
| 1777971969 | 15.56° C | 72% | 1010.1 hPa | 0 mm | 2.68 m/s, 193° | 0 W/m² | - |
| 1777971668 | 15.56° C | 72% | 1010 hPa | 0 mm | 0.89 m/s, 236° | 0 W/m² | - |
| 1777971364 | 15.56° C | 72% | 1010 hPa | 0 mm | 1.79 m/s, 189° | 0 W/m² | - |
| 1777971063 | 15.56° C | 72% | 1009.8 hPa | 0 mm | 3.13 m/s, 191° | 0 W/m² | - |
| 1777970760 | 16.11° C | 72% | 1009.9 hPa | 0 mm | 2.24 m/s, 190° | 0 W/m² | - |
| 1777970458 | 16.11° C | 71% | 1010 hPa | 0 mm | 2.24 m/s, 221° | 0 W/m² | - |
| 1777970155 | 16.11° C | 72% | 1010.2 hPa | 0 mm | 1.34 m/s, 201° | 0 W/m² | - |
| 1777969852 | 16.11° C | 71% | 1009.8 hPa | 0 mm | 2.24 m/s, 186° | 0 W/m² | - |
| 1777969547 | 16.11° C | 70% | 1009.9 hPa | 0 mm | 1.79 m/s, 197° | 0 W/m² | - |
| 1777969245 | 16.11° C | 71% | 1010 hPa | 0 mm | 1.79 m/s, 208° | 0 W/m² | - |
| 1777968941 | 16.67° C | 70% | 1009.9 hPa | 0 mm | 2.24 m/s, 200° | 0 W/m² | - |
| 1777968638 | 16.67° C | 69% | 1009.9 hPa | 0 mm | 2.24 m/s, 189° | 0 W/m² | - |
| 1777968334 | 16.67° C | 69% | 1009.8 hPa | 0 mm | 4.02 m/s, 190° | 0 W/m² | - |
| 1777968031 | 16.67° C | 69% | 1009.9 hPa | 0 mm | 2.68 m/s, 200° | 0 W/m² | - |
| 1777967727 | 16.67° C | 68% | 1010 hPa | 0 mm | 2.68 m/s, 131° | 0 W/m² | - |
| 1777967424 | 16.67° C | 68% | 1009.8 hPa | 0 mm | 2.68 m/s, 193° | 0 W/m² | - |
| 1777967121 | 17.22° C | 67% | 1009.8 hPa | 0 mm | 2.68 m/s, 191° | 0 W/m² | - |
| 1777966818 | 17.22° C | 67% | 1010 hPa | 0 mm | 2.24 m/s, 195° | 0 W/m² | - |
| 1777966516 | 17.22° C | 66% | 1009.8 hPa | 0 mm | 2.24 m/s, 173° | 0 W/m² | - |
| 1777966214 | 17.22° C | 65% | 1009.7 hPa | 0 mm | 4.47 m/s, 192° | 0 W/m² | - |
| 1777965909 | 17.22° C | 67% | 1009.7 hPa | 0 mm | 1.79 m/s, 205° | 0 W/m² | - |
* Rain latest hour (hover to see other rain measurements)
** Current wind speed in m/s (hover to see current wind gust speed)